{"data":{"norad_id":51053,"epoch":"2026-09-20T03:26:07.398816Z","epoch_age_seconds":144092,"freshness":"FRESH","line1":"1 51053U 22002BX  26263.14314119  .00162615  11495-4  57886-3 0  9995","line2":"2 51053  97.2697 349.2176 0004524 258.3163 101.7602 15.88929264261898","mean_motion":15.88929264,"eccentricity":0.0004524,"inclination_deg":97.2697,"raan_deg":349.2176,"arg_perigee_deg":258.3163,"mean_anomaly_deg":101.7602,"bstar":0.00057886,"rev_number":26189,"period_min":90.627067713192,"perigee_km":302.26011153293,"apogee_km":308.3072705742,"semimajor_km":6683.4206910536,"source":"CELESTRAK","updated_at":"2026-09-21T09:00:08.247637Z"}}